Regional Weather Roundup
Issued by NWS Upton, NY

Current Version | Previous Version | Text Only | Print | Product List | Glossary Off
Versions: 1 2 3 4 5 6 7 8 9 10 11 12 13 14 15 16 17 18 19 20 21 22 23 24 25 26 27 28 29 30
000 ASUS41 KOKX 211014 RWROKX REGIONAL WEATHER ROUNDUP NATIONAL WEATHER SERVICE NEW YORK NY 500 AM EST TUE NOV 21 2017 NOTE: "FAIR" INDICATES FEW OR NO CLOUDS BELOW 12,000 FEET WITH NO SIGNIFICANT WEATHER AND/OR OBSTRUCTIONS TO VISIBILITY. NYZ071-072-176-178-NJZ106-104-211100- NEW YORK CITY METRO AREA CITY SKY/WX TMP DP RH WIND PRES REMARKS Central Park CLOUDY 42 29 59 VRB6 30.13F Bronx Bot Gard N/A 43 28 56 SW14 30.13S Bronx Lehman C N/A 43 32 65 SW8 N/A LaGuardia APRT MOCLDY 43 30 60 SW9 30.11F Queens College N/A 43 32 65 SW6 N/A Kennedy INTL MOCLDY 41 32 70 SW12 30.13F Breezy Point N/A 43 N/A N/A SW14G20 N/A Brooklyn Coll N/A 45 32 61 SW7 N/A Staten Island N/A 37 32 81 SW5 N/A WCI 34 Newark/Liberty CLOUDY 37 27 67 SW7 30.12F WCI 32 Teterboro PTCLDY 36 27 69 S5 30.11F WCI 32 $$ NYZ177-179-078>081-211100- LONG ISLAND NEW YORK CITY SKY/WX TMP DP RH WIND PRES REMARKS Jones Beach N/A 48 N/A N/A SW14G21 N/A Wantagh N/A 45 32 61 SW6 N/A Matinecock PT N/A 45 N/A N/A SW13 N/A Farmingdale PTCLDY 43 30 60 SW9 30.13F MacArthur/ISP PTCLDY 44 31 60 SW10 30.13S Shirley CLEAR 44 33 65 SW6 30.14S Mt Sinai Harb N/A N/A N/A N/A SW3 N/A Westhampton CLEAR 43 33 68 SW8 30.15S East Hampton FAIR 43 32 65 W7 30.14S Southold N/A 41 32 70 SW5 N/A Montauk N/A 48 34 58 SW6 30.15S $$ NYZ052-065-067-211100- HUDSON VALLEY CITY SKY/WX TMP DP RH WIND PRES REMARKS White Plains CLEAR 37 24 59 CALM 30.09F Larchmont Harb N/A 45 N/A N/A SW15 N/A Croton On Huds N/A 39 N/A N/A CALM N/A Somers N/A 36 32 87 SE1 N/A Brewster N/A 32 32 100 CALM N/A Newburgh CLEAR 28 25 86 CALM 30.09S Montgomery CLEAR 27 23 85 CALM 30.06F Suffern N/A 34 32 93 S3 N/A Poughkeepsie CLEAR 28 23 81 SE3 30.08S Albany CLEAR 35 23 61 S7 30.03R WCI 29 $$ NJZ001-105-106-008-010-013-015-019>022-104-211100- NEW JERSEY CITY SKY/WX TMP DP RH WIND PRES REMARKS Newark/Liberty CLOUDY 37 27 67 SW7 30.12F WCI 32 Teterboro PTCLDY 36 27 69 S5 30.11F WCI 32 Caldwell CLOUDY 35 26 69 CALM 30.12S Somerville CLOUDY 26 24 92 NW5 30.11S WCI 20 Linden FAIR 37 27 65 CALM 30.12F Perth Amboy N/A 39 N/A N/A SW5 N/A Sussex CLOUDY 29 23 78 SW3 30.08S Andover N/A 29 25 85 CALM 30.09S Trenton CLEAR 33 26 75 S6 30.11F WCI 28 Millville CLEAR 46 37 71 VRB5 30.16S Atlantic City CLEAR 42 34 73 S7 30.16F Wrightstown CLEAR 37 31 81 SW6 30.11F WCI 32 Toms River CLEAR 37 32 82 SW8 30.15F WCI 31 Belmar CLEAR 41 30 65 S8 30.14F $$ PAZ047>061-062-071-211100- EASTERN PENNSYLVANIA CITY SKY/WX TMP DP RH WIND PRES REMARKS Philadelphia PTCLDY 41 31 67 SW7 30.14S Allentown CLOUDY 27 23 85 CALM 30.10S Scranton CLEAR 32 23 69 S3 30.05R $$ CTZ002-004>006-009-010-012-RIZ004-006-007-MAZ004-011-015-211100- SOUTHERN NEW ENGLAND IN CT CITY SKY/WX TMP DP RH WIND PRES REMARKS Bradley INTL PTCLDY 31 25 78 S8 30.08S WCI 23 Hartford CLEAR 36 25 64 S7 30.10F WCI 30 Danbury CLEAR 33 23 66 SW5 30.10S WCI 29 Wtrbury/Oxford CLEAR 34 22 61 S5 30.10R WCI 30 Norwalk Harbor N/A 43 N/A N/A W10 N/A Bridgeport CLEAR 40 26 57 W3 30.12S Meriden CLEAR 31 24 75 SE5 30.11S WCI 26 New Haven CLEAR 44 28 53 W6 30.12S Chester FAIR 39 28 65 SW5 30.11S Groton CLEAR 48 31 51 SW13G21 30.12S Wilimantic CLEAR 27 24 89 NE5 30.11S WCI 22 IN RI CITY SKY/WX TMP DP RH WIND PRES REMARKS Providence CLEAR 38 30 73 SW7 30.12S WCI 33 Block Island CLEAR 48 35 60 SW16G23 30.14S Westerly CLEAR 47 32 56 SW12G21 30.13S IN MA CITY SKY/WX TMP DP RH WIND PRES REMARKS Boston CLEAR 36 27 69 S9 30.09F WCI 29 Worcester CLEAR 30 22 72 SW8 30.04S WCI 22 Westfield CLEAR 33 25 72 S6 30.06S WCI 28 Provincetown CLEAR 44 33 65 SW12 30.12F Nantucket CLEAR 48 34 58 W12 30.15S $$ ANZ330-335-338-340-345-350-353-355-211100- COASTAL MARINE OBSERVATIONS STATION/POSITION TIME SKY/WX TEMP WIND PRES VSBY WAVE AIR SEA DIR/SP/G HT/PER (UTC) (F) (DEG/KT/KT) (MB) (MI) (FT/S) NY HARB ENTRANCE 0950 51 58 230/ 21/ 25 1019.4 4/ 5 20 S FIRE ISLAND 0950 53 56 240/ 21/ 27 1020.6 7/ 6 GREAT SOUTH BAY 0930 47 46 250/ 14/ 16 N/A HUDSON CANYON 0950 55 59 240/ 17/ 21 1021.6 4/ 6 KINGS POINT 0942 44 50 240/ 7/ 9 1020.7 EXECUTION ROCKS 0945 47 190/ 14/ 19 N/A WESTERN LI SOUND 0945 47 220/ 16/ 19 N/A 1/ 3 CENTRAL LI SOUND 0945 49 230/ 19/ 23 N/A 3 ROBBINS REEF 0942 42 250/ 10/ 12 1020.5 $$ >>>>>>>>>>>>>>>>>>>>>>>>>>>> KEY <<<<<<<<<<<<<<<<<<<<<<<<<<< > < > SKY/WX - Sky Condition/Present Weather < > TMP - Temperature in Fahrenheit < > DP - Dew Point in Fahrenheit < > RH - Relative Humidity in Percent < > WIND - Direction (from) and Speed in MPH < > PRES - Mean Sea Level Pressure (inches of Hg) < > WCI - Wind Chill Index < > VSB - VISIBILITY IN MILES < > HX - HEAT INDEX < > TC - TEMPERATURE IN CELSIUS < > VRB - VARIABLE WIND DIRECTION < > < >>>>>>>>>>>>>>>>>>>>>>>>>>>> KEY <<<<<<<<<<<<<<<<<<<<<<<<<<<

USA.gov is the U.S. government's official web portal to all federal, state and local government web resources and services.